Location: Newark
(41.1200°N, 81.9000°W)
Time: 03:56:19
(UTC+00:00)

X-37B - Visible Passes

Search period start: 30 September 2020 00:00
Search period end: 10 October 2020 00:00
Orbit: 386 x 387 km, 45.0° (Epoch: 18 September)

Date Brightness Start Highest point End Pass type
(mag) Time Alt. Az. Time Alt. Az. Time Alt. Az.
01 Oct 2.9 00:05:49 10° SSE 00:06:26 11° SE 00:06:26 11° SE visible
02 Oct 1.9 00:41:16 10° SW 00:43:20 29° S 00:43:20 29° S visible
02 Oct 2.3 23:43:24 10° SSW 23:45:46 19° SE 23:47:47 12° E visible
03 Oct 3.1 01:18:57 10° WSW 01:20:04 20° WSW 01:20:04 20° WSW visible
04 Oct 0.6 00:20:25 10° SW 00:23:33 62° SSE 00:24:24 42° E visible
05 Oct 1.8 00:58:29 10° W 01:00:52 42° WNW 01:00:52 42° WNW visible
05 Oct 0.6 23:59:49 10° WSW 00:03:00 80° NNW 00:05:00 21° ENE visible
06 Oct 4.0 01:36:50 10° WNW 01:37:16 13° WNW 01:37:16 13° WNW visible
07 Oct 1.4 00:38:06 10° W 00:41:09 43° N 00:41:19 42° N visible
07 Oct 1.1 23:39:21 10° W 23:42:29 55° NNW 23:45:20 12° ENE visible
08 Oct 3.3 01:16:25 10° WNW 01:17:36 20° WNW 01:17:36 20° WNW visible
09 Oct 1.6 00:17:42 10° WNW 00:20:43 38° N 00:21:35 31° NE visible
09 Oct 1.4 23:18:58 10° W 23:22:02 43° N 23:25:05 10° ENE visible
